This is the latest recevied weather packets stored in our database for station/object SV9FBP. If no packets are shown the sender has not sent any weather packets the latest 10 day(s).
| Time | Temp. | Humidity | Pressure | Rain* | Wind** | Luminosity | Snow |
|---|---|---|---|---|---|---|---|
| 1777877216 | 15° C | 55% | 1015.7 hPa | 0 mm | - | - | - |
| 1777876314 | 15° C | 53% | 1015.5 hPa | 0 mm | - | - | - |
| 1777875412 | 15° C | 54% | 1015.4 hPa | 0 mm | - | - | - |
| 1777874510 | 15° C | 54% | 1015.2 hPa | 0 mm | - | - | - |
| 1777873608 | 15° C | 55% | 1015.2 hPa | 0 mm | - | - | - |
| 1777872706 | 15° C | 54% | 1015.1 hPa | 0 mm | - | - | - |
| 1777871804 | 15° C | 54% | 1015.1 hPa | 0 mm | - | - | - |
| 1777870901 | 14.44° C | 54% | 1014.9 hPa | 0 mm | - | - | - |
| 1777869999 | 14.44° C | 54% | 1014.8 hPa | 0 mm | - | - | - |
| 1777869097 | 14.44° C | 55% | 1014.6 hPa | 0 mm | - | - | - |
| 1777868195 | 13.89° C | 58% | 1014.6 hPa | 0 mm | - | - | - |
| 1777867292 | 13.89° C | 60% | 1014.3 hPa | 0 mm | - | - | - |
| 1777866390 | 13.89° C | 61% | 1014.1 hPa | 0 mm | - | - | - |
| 1777865488 | 13.89° C | 61% | 1013.9 hPa | 0 mm | - | - | - |
| 1777864586 | 13.89° C | 62% | 1013.9 hPa | 0 mm | - | - | - |
| 1777863684 | 13.33° C | 63% | 1013.9 hPa | 0 mm | - | - | - |
| 1777862782 | 13.33° C | 63% | 1013.6 hPa | 0 mm | - | - | - |
| 1777861880 | 13.33° C | 66% | 1013.4 hPa | 0 mm | - | - | - |
| 1777860978 | 13.33° C | 67% | 1013.2 hPa | 0 mm | - | - | - |
| 1777860075 | 13.33° C | 68% | 1013.4 hPa | 0 mm | - | - | - |
| 1777859174 | 13.89° C | 66% | 1013.7 hPa | 0 mm | - | - | - |
| 1777858272 | 13.33° C | 64% | 1013.2 hPa | 0 mm | - | - | - |
| 1777857369 | 13.33° C | 64% | 1013.2 hPa | 0 mm | - | - | - |
| 1777856474 | 13.33° C | 64% | 1013.3 hPa | 0 mm | - | - | - |
| 1777855565 | 13.33° C | 65% | 1013.1 hPa | 0 mm | - | - | - |
* Rain latest hour (hover to see other rain measurements)
** Current wind speed in m/s (hover to see current wind gust speed)